#datetime,building,power
2022-10-04T00:00:00,ths,4.51
2022-10-04T00:01:00,ths,4.54
2022-10-04T00:02:00,ths,4.45
2022-10-04T00:03:00,ths,4.37
2022-10-04T00:04:00,ths,4.20
2022-10-04T00:05:00,ths,4.24
2022-10-04T00:06:00,ths,4.25
2022-10-04T00:07:00,ths,4.21
2022-10-04T00:08:00,ths,4.36
2022-10-04T00:09:00,ths,4.42
2022-10-04T00:10:00,ths,5.57
2022-10-04T00:11:00,ths,4.37
2022-10-04T00:12:00,ths,5.37
2022-10-04T00:13:00,ths,7.13
2022-10-04T00:14:00,ths,5.32
2022-10-04T00:15:00,ths,5.30
2022-10-04T00:16:00,ths,5.32
2022-10-04T00:17:00,ths,5.53
2022-10-04T00:18:00,ths,5.45
2022-10-04T00:19:00,ths,6.53
2022-10-04T00:20:00,ths,6.48
2022-10-04T00:21:00,ths,6.32
2022-10-04T00:22:00,ths,5.39
2022-10-04T00:23:00,ths,5.41
2022-10-04T00:24:00,ths,5.39
2022-10-04T00:25:00,ths,5.36
2022-10-04T00:26:00,ths,5.34
2022-10-04T00:27:00,ths,5.32
2022-10-04T00:28:00,ths,5.28
2022-10-04T00:29:00,ths,5.25
2022-10-04T00:30:00,ths,5.29
2022-10-04T00:31:00,ths,5.38
2022-10-04T00:32:00,ths,5.40
2022-10-04T00:33:00,ths,4.60
2022-10-04T00:34:00,ths,4.57
2022-10-04T00:35:00,ths,4.74
2022-10-04T00:36:00,ths,4.75
2022-10-04T00:37:00,ths,4.73
2022-10-04T00:38:00,ths,4.75
2022-10-04T00:39:00,ths,4.59
2022-10-04T00:40:00,ths,4.66
2022-10-04T00:41:00,ths,4.80
2022-10-04T00:42:00,ths,4.69
2022-10-04T00:43:00,ths,4.64
2022-10-04T00:44:00,ths,4.63
2022-10-04T00:45:00,ths,4.62
2022-10-04T00:46:00,ths,4.56
2022-10-04T00:47:00,ths,4.48
2022-10-04T00:48:00,ths,4.44
2022-10-04T00:49:00,ths,4.41
2022-10-04T00:50:00,ths,4.38
2022-10-04T00:51:00,ths,4.38
2022-10-04T00:52:00,ths,4.48
2022-10-04T00:53:00,ths,4.43
2022-10-04T00:54:00,ths,4.44
2022-10-04T00:55:00,ths,4.44
2022-10-04T00:56:00,ths,4.34
2022-10-04T00:57:00,ths,4.31
2022-10-04T00:58:00,ths,4.31
2022-10-04T00:59:00,ths,4.30
2022-10-04T01:00:00,ths,5.21
2022-10-04T01:01:00,ths,5.22
2022-10-04T01:02:00,ths,5.20
2022-10-04T01:03:00,ths,5.26
2022-10-04T01:04:00,ths,5.24
2022-10-04T01:05:00,ths,5.20
2022-10-04T01:06:00,ths,5.21
2022-10-04T01:07:00,ths,5.38
2022-10-04T01:08:00,ths,5.35
2022-10-04T01:09:00,ths,5.37
2022-10-04T01:10:00,ths,6.39
2022-10-04T01:11:00,ths,6.41
2022-10-04T01:12:00,ths,5.61
2022-10-04T01:13:00,ths,5.39
2022-10-04T01:14:00,ths,5.44
2022-10-04T01:15:00,ths,5.40
2022-10-04T01:16:00,ths,5.34
2022-10-04T01:17:00,ths,5.42
2022-10-04T01:18:00,ths,5.35
2022-10-04T01:19:00,ths,5.33
2022-10-04T01:20:00,ths,4.29
2022-10-04T01:21:00,ths,4.30
2022-10-04T01:22:00,ths,4.49
2022-10-04T01:23:00,ths,5.29
2022-10-04T01:24:00,ths,5.26
2022-10-04T01:25:00,ths,5.32
2022-10-04T01:26:00,ths,5.33
2022-10-04T01:27:00,ths,5.37
2022-10-04T01:28:00,ths,6.86
2022-10-04T01:29:00,ths,6.90
2022-10-04T01:30:00,ths,7.84
2022-10-04T01:31:00,ths,6.35
2022-10-04T01:32:00,ths,6.24
2022-10-04T01:33:00,ths,6.18
2022-10-04T01:34:00,ths,6.16
2022-10-04T01:35:00,ths,6.23
2022-10-04T01:36:00,ths,6.24
2022-10-04T01:37:00,ths,6.26
2022-10-04T01:38:00,ths,6.31
2022-10-04T01:39:00,ths,6.21
2022-10-04T01:40:00,ths,6.22
2022-10-04T01:41:00,ths,5.34
2022-10-04T01:42:00,ths,4.31
2022-10-04T01:43:00,ths,4.28
2022-10-04T01:44:00,ths,4.47
2022-10-04T01:45:00,ths,4.35
2022-10-04T01:46:00,ths,4.27
2022-10-04T01:47:00,ths,4.23
2022-10-04T01:48:00,ths,4.28
2022-10-04T01:49:00,ths,4.13
2022-10-04T01:50:00,ths,4.34
2022-10-04T01:51:00,ths,4.29
2022-10-04T01:52:00,ths,4.23
2022-10-04T01:53:00,ths,4.12
2022-10-04T01:54:00,ths,4.12
2022-10-04T01:55:00,ths,4.08
2022-10-04T01:56:00,ths,4.12
2022-10-04T01:57:00,ths,4.02
2022-10-04T01:58:00,ths,3.99
2022-10-04T01:59:00,ths,4.21
2022-10-04T02:00:00,ths,4.03
2022-10-04T02:01:00,ths,4.11
2022-10-04T02:02:00,ths,4.10
2022-10-04T02:03:00,ths,4.03
2022-10-04T02:04:00,ths,4.04
2022-10-04T02:05:00,ths,3.96
2022-10-04T02:06:00,ths,3.80
2022-10-04T02:07:00,ths,4.69
2022-10-04T02:08:00,ths,4.65
2022-10-04T02:09:00,ths,5.63
2022-10-04T02:10:00,ths,5.65
2022-10-04T02:11:00,ths,5.67
2022-10-04T02:12:00,ths,5.59
2022-10-04T02:13:00,ths,5.59
2022-10-04T02:14:00,ths,5.53
2022-10-04T02:15:00,ths,5.06
2022-10-04T02:16:00,ths,5.09
2022-10-04T02:17:00,ths,5.08
2022-10-04T02:18:00,ths,5.06
2022-10-04T02:19:00,ths,5.01
2022-10-04T02:20:00,ths,4.91
2022-10-04T02:21:00,ths,4.91
2022-10-04T02:22:00,ths,4.82
2022-10-04T02:23:00,ths,4.86
2022-10-04T02:24:00,ths,4.86
2022-10-04T02:25:00,ths,5.00
2022-10-04T02:26:00,ths,4.94
2022-10-04T02:27:00,ths,4.89
2022-10-04T02:28:00,ths,4.66
2022-10-04T02:29:00,ths,3.96
2022-10-04T02:30:00,ths,3.94
2022-10-04T02:31:00,ths,3.89
2022-10-04T02:32:00,ths,3.88
2022-10-04T02:33:00,ths,3.88
2022-10-04T02:34:00,ths,3.87
2022-10-04T02:35:00,ths,3.98
2022-10-04T02:36:00,ths,3.89
2022-10-04T02:37:00,ths,3.87
2022-10-04T02:38:00,ths,3.93
2022-10-04T02:39:00,ths,3.85
2022-10-04T02:40:00,ths,3.68
2022-10-04T02:41:00,ths,3.66
2022-10-04T02:42:00,ths,4.17
2022-10-04T02:43:00,ths,3.67
2022-10-04T02:44:00,ths,3.54
2022-10-04T02:45:00,ths,3.56
2022-10-04T02:46:00,ths,3.67
2022-10-04T02:47:00,ths,3.69
2022-10-04T02:48:00,ths,3.68
2022-10-04T02:49:00,ths,3.87
2022-10-04T02:50:00,ths,3.87
2022-10-04T02:51:00,ths,4.01
2022-10-04T02:52:00,ths,4.05
2022-10-04T02:53:00,ths,5.01
2022-10-04T02:54:00,ths,4.79
2022-10-04T02:55:00,ths,4.75
2022-10-04T02:56:00,ths,4.48
2022-10-04T02:57:00,ths,4.45
2022-10-04T02:58:00,ths,4.47
2022-10-04T02:59:00,ths,4.39
2022-10-04T03:00:00,ths,4.44
2022-10-04T03:01:00,ths,4.45
2022-10-04T03:02:00,ths,3.73
2022-10-04T03:03:00,ths,3.77
2022-10-04T03:04:00,ths,3.83
2022-10-04T03:05:00,ths,3.77
2022-10-04T03:06:00,ths,4.00
2022-10-04T03:07:00,ths,3.98
2022-10-04T03:08:00,ths,3.91
2022-10-04T03:09:00,ths,3.99
2022-10-04T03:10:00,ths,3.97
2022-10-04T03:11:00,ths,3.60
2022-10-04T03:12:00,ths,3.74
2022-10-04T03:13:00,ths,3.68
2022-10-04T03:14:00,ths,5.05
2022-10-04T03:15:00,ths,4.67
2022-10-04T03:16:00,ths,4.64
2022-10-04T03:17:00,ths,4.57
2022-10-04T03:18:00,ths,4.63
2022-10-04T03:19:00,ths,4.62
2022-10-04T03:20:00,ths,4.50
2022-10-04T03:21:00,ths,4.79
2022-10-04T03:22:00,ths,4.72
2022-10-04T03:23:00,ths,4.59
2022-10-04T03:24:00,ths,5.84
2022-10-04T03:25:00,ths,3.73
2022-10-04T03:26:00,ths,3.65
2022-10-04T03:27:00,ths,3.58
2022-10-04T03:28:00,ths,3.52
2022-10-04T03:29:00,ths,3.50
2022-10-04T03:30:00,ths,3.50
2022-10-04T03:31:00,ths,3.71
2022-10-04T03:32:00,ths,3.69
2022-10-04T03:33:00,ths,3.79
2022-10-04T03:34:00,ths,3.79
2022-10-04T03:35:00,ths,3.78
2022-10-04T03:36:00,ths,5.08
2022-10-04T03:37:00,ths,4.57
2022-10-04T03:38:00,ths,4.59
2022-10-04T03:39:00,ths,4.55
2022-10-04T03:40:00,ths,4.52
2022-10-04T03:41:00,ths,4.52
2022-10-04T03:42:00,ths,4.40
2022-10-04T03:43:00,ths,4.49
2022-10-04T03:44:00,ths,4.48
2022-10-04T03:45:00,ths,4.24
2022-10-04T03:46:00,ths,3.46
2022-10-04T03:47:00,ths,3.44
2022-10-04T03:48:00,ths,3.58
2022-10-04T03:49:00,ths,3.56
2022-10-04T03:50:00,ths,3.51
2022-10-04T03:51:00,ths,3.46
2022-10-04T03:52:00,ths,3.44
2022-10-04T03:53:00,ths,3.34
2022-10-04T03:54:00,ths,3.26
2022-10-04T03:55:00,ths,3.26
2022-10-04T03:56:00,ths,3.26
2022-10-04T03:57:00,ths,3.21
2022-10-04T03:58:00,ths,3.25
2022-10-04T03:59:00,ths,3.29
2022-10-04T04:00:00,ths,3.39
2022-10-04T04:01:00,ths,3.50
2022-10-04T04:02:00,ths,3.47
2022-10-04T04:03:00,ths,3.68
2022-10-04T04:04:00,ths,3.31
2022-10-04T04:05:00,ths,3.31
2022-10-04T04:06:00,ths,3.30
2022-10-04T04:07:00,ths,3.42
2022-10-04T04:08:00,ths,3.45
2022-10-04T04:09:00,ths,3.40
2022-10-04T04:10:00,ths,3.45
2022-10-04T04:11:00,ths,3.47
2022-10-04T04:12:00,ths,3.47
2022-10-04T04:13:00,ths,3.46
2022-10-04T04:14:00,ths,3.41
2022-10-04T04:15:00,ths,3.40
2022-10-04T04:16:00,ths,3.58
2022-10-04T04:17:00,ths,3.54
2022-10-04T04:18:00,ths,3.53
2022-10-04T04:19:00,ths,3.58
2022-10-04T04:20:00,ths,3.63
2022-10-04T04:21:00,ths,3.70
2022-10-04T04:22:00,ths,3.62
2022-10-04T04:23:00,ths,3.62
2022-10-04T04:24:00,ths,3.61
2022-10-04T04:25:00,ths,3.51
2022-10-04T04:26:00,ths,3.33
2022-10-04T04:27:00,ths,3.30
2022-10-04T04:28:00,ths,3.28
2022-10-04T04:29:00,ths,3.29
2022-10-04T04:30:00,ths,3.23
2022-10-04T04:31:00,ths,4.20
2022-10-04T04:32:00,ths,4.20
2022-10-04T04:33:00,ths,4.05
2022-10-04T04:34:00,ths,4.23
2022-10-04T04:35:00,ths,4.20
2022-10-04T04:36:00,ths,4.19
2022-10-04T04:37:00,ths,4.12
2022-10-04T04:38:00,ths,4.06
2022-10-04T04:39:00,ths,4.06
2022-10-04T04:40:00,ths,4.10
2022-10-04T04:41:00,ths,5.04
2022-10-04T04:42:00,ths,5.02
2022-10-04T04:43:00,ths,4.18
2022-10-04T04:44:00,ths,4.17
2022-10-04T04:45:00,ths,4.14
2022-10-04T04:46:00,ths,4.15
2022-10-04T04:47:00,ths,4.15
2022-10-04T04:48:00,ths,4.14
2022-10-04T04:49:00,ths,4.22
2022-10-04T04:50:00,ths,3.37
2022-10-04T04:51:00,ths,3.58
2022-10-04T04:52:00,ths,3.54
2022-10-04T04:53:00,ths,3.47
2022-10-04T04:54:00,ths,3.39
2022-10-04T04:55:00,ths,3.38
2022-10-04T04:56:00,ths,3.37
2022-10-04T04:57:00,ths,3.40
2022-10-04T04:58:00,ths,3.34
2022-10-04T04:59:00,ths,3.38
2022-10-04T05:00:00,ths,3.28
2022-10-04T05:01:00,ths,3.27
2022-10-04T05:02:00,ths,3.22
2022-10-04T05:03:00,ths,3.23
2022-10-04T05:04:00,ths,3.27
2022-10-04T05:05:00,ths,3.27
2022-10-04T05:06:00,ths,3.26
2022-10-04T05:07:00,ths,3.33
2022-10-04T05:08:00,ths,3.42
2022-10-04T05:09:00,ths,3.40
2022-10-04T05:10:00,ths,3.39
2022-10-04T05:11:00,ths,3.29
2022-10-04T05:12:00,ths,3.28
2022-10-04T05:13:00,ths,3.23
2022-10-04T05:14:00,ths,3.23
2022-10-04T05:15:00,ths,3.23
2022-10-04T05:16:00,ths,3.31
2022-10-04T05:17:00,ths,3.27
2022-10-04T05:18:00,ths,3.27
2022-10-04T05:19:00,ths,3.26
2022-10-04T05:20:00,ths,3.33
2022-10-04T05:21:00,ths,3.31
2022-10-04T05:22:00,ths,3.35
2022-10-04T05:23:00,ths,3.39
2022-10-04T05:24:00,ths,3.39
2022-10-04T05:25:00,ths,3.47
2022-10-04T05:26:00,ths,3.46
2022-10-04T05:27:00,ths,3.45
2022-10-04T05:28:00,ths,3.36
2022-10-04T05:29:00,ths,3.27
2022-10-04T05:30:00,ths,3.17
2022-10-04T05:31:00,ths,3.22
2022-10-04T05:32:00,ths,3.34
2022-10-04T05:33:00,ths,3.36
2022-10-04T05:34:00,ths,3.36
2022-10-04T05:35:00,ths,3.36
2022-10-04T05:36:00,ths,3.35
2022-10-04T05:37:00,ths,3.35
2022-10-04T05:38:00,ths,3.34
2022-10-04T05:39:00,ths,3.35
2022-10-04T05:40:00,ths,3.34
2022-10-04T05:41:00,ths,3.33
2022-10-04T05:42:00,ths,3.42
2022-10-04T05:43:00,ths,3.41
2022-10-04T05:44:00,ths,3.46
2022-10-04T05:45:00,ths,3.33
2022-10-04T05:46:00,ths,3.45
2022-10-04T05:47:00,ths,3.39
2022-10-04T05:48:00,ths,3.43
2022-10-04T05:49:00,ths,3.42
2022-10-04T05:50:00,ths,3.38
2022-10-04T05:51:00,ths,3.43
2022-10-04T05:52:00,ths,3.43
2022-10-04T05:53:00,ths,3.58
2022-10-04T05:54:00,ths,3.56
2022-10-04T05:55:00,ths,3.65
2022-10-04T05:56:00,ths,3.71
2022-10-04T05:57:00,ths,3.69
2022-10-04T05:58:00,ths,3.68
2022-10-04T05:59:00,ths,3.77
2022-10-04T06:00:00,ths,3.63
2022-10-04T06:01:00,ths,3.62
2022-10-04T06:02:00,ths,3.54
2022-10-04T06:03:00,ths,4.44
2022-10-04T06:04:00,ths,4.47
2022-10-04T06:05:00,ths,4.46
2022-10-04T06:06:00,ths,4.29
2022-10-04T06:07:00,ths,4.30
2022-10-04T06:08:00,ths,4.28
2022-10-04T06:09:00,ths,4.29
2022-10-04T06:10:00,ths,4.21
2022-10-04T06:11:00,ths,4.13
2022-10-04T06:12:00,ths,4.14
2022-10-04T06:13:00,ths,4.14
2022-10-04T06:14:00,ths,3.24
2022-10-04T06:15:00,ths,3.27
2022-10-04T06:16:00,ths,3.36
2022-10-04T06:17:00,ths,3.45
2022-10-04T06:18:00,ths,3.43
2022-10-04T06:19:00,ths,3.35
2022-10-04T06:20:00,ths,3.34
2022-10-04T06:21:00,ths,3.35
2022-10-04T06:22:00,ths,3.33
2022-10-04T06:23:00,ths,4.26
2022-10-04T06:24:00,ths,4.32
2022-10-04T06:25:00,ths,4.35
2022-10-04T06:26:00,ths,5.25
2022-10-04T06:27:00,ths,5.32
2022-10-04T06:28:00,ths,5.18
2022-10-04T06:29:00,ths,5.16
2022-10-04T06:30:00,ths,5.23
2022-10-04T06:31:00,ths,5.20
2022-10-04T06:32:00,ths,5.13
2022-10-04T06:33:00,ths,4.47
2022-10-04T06:34:00,ths,4.22
2022-10-04T06:35:00,ths,4.17
2022-10-04T06:36:00,ths,4.07
2022-10-04T06:37:00,ths,4.13
2022-10-04T06:38:00,ths,4.07
2022-10-04T06:39:00,ths,4.06
2022-10-04T06:40:00,ths,3.98
2022-10-04T06:41:00,ths,3.98
2022-10-04T06:42:00,ths,3.97
2022-10-04T06:43:00,ths,3.95
2022-10-04T06:44:00,ths,3.95
2022-10-04T06:45:00,ths,4.04
2022-10-04T06:46:00,ths,4.08
2022-10-04T06:47:00,ths,4.06
2022-10-04T06:48:00,ths,4.03
2022-10-04T06:49:00,ths,3.96
2022-10-04T06:50:00,ths,4.10
2022-10-04T06:51:00,ths,4.14
2022-10-04T06:52:00,ths,4.09
2022-10-04T06:53:00,ths,4.01
2022-10-04T06:54:00,ths,3.09
2022-10-04T06:55:00,ths,3.08
2022-10-04T06:56:00,ths,3.19
2022-10-04T06:57:00,ths,3.06
2022-10-04T06:58:00,ths,3.05
2022-10-04T06:59:00,ths,3.15
2022-10-04T07:00:00,ths,3.15
2022-10-04T07:01:00,ths,4.04
2022-10-04T07:02:00,ths,4.04
2022-10-04T07:03:00,ths,4.03
2022-10-04T07:04:00,ths,4.85
2022-10-04T07:05:00,ths,4.84
2022-10-04T07:06:00,ths,4.86
2022-10-04T07:07:00,ths,4.86
2022-10-04T07:08:00,ths,5.17
2022-10-04T07:09:00,ths,4.91
2022-10-04T07:10:00,ths,4.78
2022-10-04T07:11:00,ths,4.85
2022-10-04T07:12:00,ths,4.91
2022-10-04T07:13:00,ths,4.63
2022-10-04T07:14:00,ths,3.95
2022-10-04T07:15:00,ths,3.08
2022-10-04T07:16:00,ths,3.07
2022-10-04T07:17:00,ths,3.18
2022-10-04T07:18:00,ths,3.21
2022-10-04T07:19:00,ths,3.13
2022-10-04T07:20:00,ths,3.11
2022-10-04T07:21:00,ths,3.11
2022-10-04T07:22:00,ths,3.31
2022-10-04T07:23:00,ths,3.39
2022-10-04T07:24:00,ths,3.44
2022-10-04T07:25:00,ths,3.42
2022-10-04T07:26:00,ths,5.19
2022-10-04T07:27:00,ths,3.32
2022-10-04T07:28:00,ths,3.29
2022-10-04T07:29:00,ths,4.22
2022-10-04T07:30:00,ths,4.45
2022-10-04T07:31:00,ths,4.46
2022-10-04T07:32:00,ths,4.60
2022-10-04T07:33:00,ths,4.56
2022-10-04T07:34:00,ths,4.53
2022-10-04T07:35:00,ths,4.45
2022-10-04T07:36:00,ths,5.31
2022-10-04T07:37:00,ths,5.27
2022-10-04T07:38:00,ths,5.32
2022-10-04T07:39:00,ths,6.24
2022-10-04T07:40:00,ths,6.60
2022-10-04T07:41:00,ths,6.62
2022-10-04T07:42:00,ths,5.73
2022-10-04T07:43:00,ths,5.57
2022-10-04T07:44:00,ths,5.52
2022-10-04T07:45:00,ths,5.50
2022-10-04T07:46:00,ths,5.44
2022-10-04T07:47:00,ths,5.38
2022-10-04T07:48:00,ths,5.19
2022-10-04T07:49:00,ths,4.50
2022-10-04T07:50:00,ths,4.52
2022-10-04T07:51:00,ths,4.71
2022-10-04T07:52:00,ths,4.52
2022-10-04T07:53:00,ths,4.63
2022-10-04T07:54:00,ths,4.63
2022-10-04T07:55:00,ths,6.95
2022-10-04T07:56:00,ths,5.89
2022-10-04T07:57:00,ths,5.70
2022-10-04T07:58:00,ths,5.70
2022-10-04T07:59:00,ths,5.81
2022-10-04T08:00:00,ths,5.95
2022-10-04T08:01:00,ths,4.67
2022-10-04T08:02:00,ths,4.83
2022-10-04T08:03:00,ths,4.74
2022-10-04T08:04:00,ths,4.78
2022-10-04T08:05:00,ths,5.67
2022-10-04T08:06:00,ths,5.74
2022-10-04T08:07:00,ths,5.60
2022-10-04T08:08:00,ths,6.61
2022-10-04T08:09:00,ths,6.60
2022-10-04T08:10:00,ths,6.55
2022-10-04T08:11:00,ths,6.52
2022-10-04T08:12:00,ths,6.44
2022-10-04T08:13:00,ths,6.30
2022-10-04T08:14:00,ths,5.57
2022-10-04T08:15:00,ths,5.50
2022-10-04T08:16:00,ths,5.39
2022-10-04T08:17:00,ths,5.01
2022-10-04T08:18:00,ths,4.28
2022-10-04T08:19:00,ths,4.32
2022-10-04T08:20:00,ths,4.37
2022-10-04T08:21:00,ths,4.41
2022-10-04T08:22:00,ths,4.40
2022-10-04T08:23:00,ths,4.38
2022-10-04T08:24:00,ths,4.45
2022-10-04T08:25:00,ths,4.46
2022-10-04T08:26:00,ths,4.52
2022-10-04T08:27:00,ths,4.49
2022-10-04T08:28:00,ths,4.51
2022-10-04T08:29:00,ths,4.66
2022-10-04T08:30:00,ths,4.64
2022-10-04T08:31:00,ths,4.55
2022-10-04T08:32:00,ths,4.54
2022-10-04T08:33:00,ths,4.47
2022-10-04T08:34:00,ths,4.53
2022-10-04T08:35:00,ths,4.53
2022-10-04T08:36:00,ths,4.46
2022-10-04T08:37:00,ths,4.49
2022-10-04T08:38:00,ths,4.50
2022-10-04T08:39:00,ths,5.56
2022-10-04T08:40:00,ths,4.50
2022-10-04T08:41:00,ths,4.73
2022-10-04T08:42:00,ths,4.65
2022-10-04T08:43:00,ths,4.65
2022-10-04T08:44:00,ths,4.65
2022-10-04T08:45:00,ths,4.58
2022-10-04T08:46:00,ths,4.70
2022-10-04T08:47:00,ths,4.74
2022-10-04T08:48:00,ths,4.91
2022-10-04T08:49:00,ths,4.91
2022-10-04T08:50:00,ths,4.90
2022-10-04T08:51:00,ths,4.86
2022-10-04T08:52:00,ths,4.82
2022-10-04T08:53:00,ths,4.75
2022-10-04T08:54:00,ths,4.73
2022-10-04T08:55:00,ths,4.67
2022-10-04T08:56:00,ths,4.75
2022-10-04T08:57:00,ths,4.72
2022-10-04T08:58:00,ths,4.69
2022-10-04T08:59:00,ths,4.63
2022-10-04T09:00:00,ths,4.66
2022-10-04T09:01:00,ths,4.78
2022-10-04T09:02:00,ths,4.99
2022-10-04T09:03:00,ths,5.05
2022-10-04T09:04:00,ths,4.99
2022-10-04T09:05:00,ths,5.14
2022-10-04T09:06:00,ths,4.83
2022-10-04T09:07:00,ths,4.83
2022-10-04T09:08:00,ths,4.83
2022-10-04T09:09:00,ths,4.76
2022-10-04T09:10:00,ths,5.74
2022-10-04T09:11:00,ths,5.72
2022-10-04T09:12:00,ths,5.67
2022-10-04T09:13:00,ths,5.68
2022-10-04T09:14:00,ths,5.63
2022-10-04T09:15:00,ths,5.77
2022-10-04T09:16:00,ths,5.74
2022-10-04T09:17:00,ths,5.60
2022-10-04T09:18:00,ths,5.62
2022-10-04T09:19:00,ths,4.76
2022-10-04T09:20:00,ths,4.80
2022-10-04T09:21:00,ths,4.78
2022-10-04T09:22:00,ths,4.74
2022-10-04T09:23:00,ths,4.70
2022-10-04T09:24:00,ths,4.80
2022-10-04T09:25:00,ths,4.74
2022-10-04T09:26:00,ths,4.73
2022-10-04T09:27:00,ths,4.73
2022-10-04T09:28:00,ths,4.68
2022-10-04T09:29:00,ths,4.67
2022-10-04T09:30:00,ths,4.64
2022-10-04T09:31:00,ths,4.64
2022-10-04T09:32:00,ths,4.67
2022-10-04T09:33:00,ths,4.65
2022-10-04T09:34:00,ths,4.61
2022-10-04T09:35:00,ths,4.59
2022-10-04T09:36:00,ths,4.65
2022-10-04T09:37:00,ths,4.75
2022-10-04T09:38:00,ths,4.82
2022-10-04T09:39:00,ths,4.71
2022-10-04T09:40:00,ths,4.66
2022-10-04T09:41:00,ths,4.60
2022-10-04T09:42:00,ths,4.61
2022-10-04T09:43:00,ths,4.53
2022-10-04T09:44:00,ths,4.51
2022-10-04T09:45:00,ths,4.68
2022-10-04T09:46:00,ths,5.45
2022-10-04T09:47:00,ths,5.43
2022-10-04T09:48:00,ths,5.42
2022-10-04T09:49:00,ths,5.41
2022-10-04T09:50:00,ths,5.35
2022-10-04T09:51:00,ths,5.35
2022-10-04T09:52:00,ths,5.29
2022-10-04T09:53:00,ths,5.36
2022-10-04T09:54:00,ths,6.23
2022-10-04T09:55:00,ths,5.36
2022-10-04T09:56:00,ths,9.60
2022-10-04T09:57:00,ths,9.65
2022-10-04T09:58:00,ths,9.71
2022-10-04T09:59:00,ths,9.61
2022-10-04T10:00:00,ths,9.72
2022-10-04T10:01:00,ths,9.95
2022-10-04T10:02:00,ths,9.91
2022-10-04T10:03:00,ths,8.95
2022-10-04T10:04:00,ths,9.00
2022-10-04T10:05:00,ths,9.19
2022-10-04T10:06:00,ths,9.05
2022-10-04T10:07:00,ths,9.02
2022-10-04T10:08:00,ths,9.12
2022-10-04T10:09:00,ths,9.29
2022-10-04T10:10:00,ths,9.26
2022-10-04T10:11:00,ths,9.25
2022-10-04T10:12:00,ths,9.20
2022-10-04T10:13:00,ths,9.16
2022-10-04T10:14:00,ths,9.16
2022-10-04T10:15:00,ths,9.09
2022-10-04T10:16:00,ths,9.08
2022-10-04T10:17:00,ths,8.96
2022-10-04T10:18:00,ths,8.82
2022-10-04T10:19:00,ths,8.97
2022-10-04T10:20:00,ths,8.85
2022-10-04T10:21:00,ths,9.01
2022-10-04T10:22:00,ths,9.07
2022-10-04T10:23:00,ths,9.17
2022-10-04T10:24:00,ths,9.12
2022-10-04T10:25:00,ths,9.14
2022-10-04T10:26:00,ths,9.43
2022-10-04T10:27:00,ths,10.37
2022-10-04T10:28:00,ths,10.30
2022-10-04T10:29:00,ths,10.24
2022-10-04T10:30:00,ths,9.98
2022-10-04T10:31:00,ths,10.11
2022-10-04T10:32:00,ths,10.15
2022-10-04T10:33:00,ths,9.84
2022-10-04T10:34:00,ths,9.25
2022-10-04T10:35:00,ths,9.10
2022-10-04T10:36:00,ths,9.07
2022-10-04T10:37:00,ths,9.04
2022-10-04T10:38:00,ths,9.10
2022-10-04T10:39:00,ths,9.10
2022-10-04T10:40:00,ths,9.12
2022-10-04T10:41:00,ths,9.22
2022-10-04T10:42:00,ths,9.15
2022-10-04T10:43:00,ths,9.32
2022-10-04T10:44:00,ths,9.25
2022-10-04T10:45:00,ths,9.28
2022-10-04T10:46:00,ths,9.36
2022-10-04T10:47:00,ths,9.04
2022-10-04T10:48:00,ths,9.06
2022-10-04T10:49:00,ths,9.09
2022-10-04T10:50:00,ths,5.16
2022-10-04T10:51:00,ths,5.15
2022-10-04T10:52:00,ths,6.04
2022-10-04T10:53:00,ths,5.98
2022-10-04T10:54:00,ths,6.04
2022-10-04T10:55:00,ths,6.05
2022-10-04T10:56:00,ths,5.69
2022-10-04T10:57:00,ths,5.79
2022-10-04T10:58:00,ths,5.72
2022-10-04T10:59:00,ths,5.75
2022-10-04T11:00:00,ths,5.45
2022-10-04T11:01:00,ths,4.67
2022-10-04T11:02:00,ths,4.76
2022-10-04T11:03:00,ths,4.62
2022-10-04T11:04:00,ths,4.58
2022-10-04T11:05:00,ths,4.54
2022-10-04T11:06:00,ths,4.63
2022-10-04T11:07:00,ths,4.61
2022-10-04T11:08:00,ths,4.62
2022-10-04T11:09:00,ths,4.62
2022-10-04T11:10:00,ths,4.53
2022-10-04T11:11:00,ths,4.53
2022-10-04T11:12:00,ths,4.51
2022-10-04T11:13:00,ths,4.66
2022-10-04T11:14:00,ths,4.67
2022-10-04T11:15:00,ths,4.76
2022-10-04T11:16:00,ths,4.88
2022-10-04T11:17:00,ths,4.96
2022-10-04T11:18:00,ths,4.88
2022-10-04T11:19:00,ths,4.89
2022-10-04T11:20:00,ths,9.05
2022-10-04T11:21:00,ths,9.14
2022-10-04T11:22:00,ths,9.19
2022-10-04T11:23:00,ths,9.02
2022-10-04T11:24:00,ths,9.10
2022-10-04T11:25:00,ths,8.98
2022-10-04T11:26:00,ths,8.97
2022-10-04T11:27:00,ths,8.97
2022-10-04T11:28:00,ths,9.09
2022-10-04T11:29:00,ths,8.97
2022-10-04T11:30:00,ths,9.02
2022-10-04T11:31:00,ths,9.94
2022-10-04T11:32:00,ths,9.92
2022-10-04T11:33:00,ths,10.07
2022-10-04T11:34:00,ths,10.04
2022-10-04T11:35:00,ths,10.03
2022-10-04T11:36:00,ths,9.97
2022-10-04T11:37:00,ths,9.87
2022-10-04T11:38:00,ths,9.74
2022-10-04T11:39:00,ths,9.19
2022-10-04T11:40:00,ths,9.00
2022-10-04T11:41:00,ths,8.97
2022-10-04T11:42:00,ths,9.16
2022-10-04T11:43:00,ths,9.45
2022-10-04T11:44:00,ths,9.65
2022-10-04T11:45:00,ths,9.76
2022-10-04T11:46:00,ths,9.68
2022-10-04T11:47:00,ths,9.69
2022-10-04T11:48:00,ths,9.20
2022-10-04T11:49:00,ths,9.24
2022-10-04T11:50:00,ths,9.20
2022-10-04T11:51:00,ths,11.30
2022-10-04T11:52:00,ths,14.83
2022-10-04T11:53:00,ths,14.72
2022-10-04T11:54:00,ths,14.68
2022-10-04T11:55:00,ths,14.71
2022-10-04T11:56:00,ths,14.58
2022-10-04T11:57:00,ths,13.47
2022-10-04T11:58:00,ths,13.46
2022-10-04T11:59:00,ths,13.52
2022-10-04T12:00:00,ths,13.50
2022-10-04T12:01:00,ths,13.56
2022-10-04T12:02:00,ths,13.51
2022-10-04T12:03:00,ths,13.43
2022-10-04T12:04:00,ths,13.38
2022-10-04T12:05:00,ths,13.35
2022-10-04T12:06:00,ths,13.41
2022-10-04T12:07:00,ths,13.50
2022-10-04T12:08:00,ths,13.51
2022-10-04T12:09:00,ths,13.61
2022-10-04T12:10:00,ths,13.67
2022-10-04T12:11:00,ths,14.19
2022-10-04T12:12:00,ths,15.48
2022-10-04T12:13:00,ths,15.42
2022-10-04T12:14:00,ths,17.36
2022-10-04T12:15:00,ths,15.37
2022-10-04T12:16:00,ths,12.24
2022-10-04T12:17:00,ths,11.40
2022-10-04T12:18:00,ths,11.39
2022-10-04T12:19:00,ths,11.09
2022-10-04T12:20:00,ths,11.11
2022-10-04T12:21:00,ths,11.16
2022-10-04T12:22:00,ths,11.01
2022-10-04T12:23:00,ths,11.96
2022-10-04T12:24:00,ths,15.08
2022-10-04T12:25:00,ths,14.98
2022-10-04T12:26:00,ths,12.07
2022-10-04T12:27:00,ths,13.19
2022-10-04T12:28:00,ths,16.30
2022-10-04T12:29:00,ths,16.57
2022-10-04T12:30:00,ths,16.54
2022-10-04T12:31:00,ths,20.33
2022-10-04T12:32:00,ths,15.57
2022-10-04T12:33:00,ths,13.08
2022-10-04T12:34:00,ths,11.51
2022-10-04T12:35:00,ths,11.86
2022-10-04T12:36:00,ths,11.38
2022-10-04T12:37:00,ths,17.25
2022-10-04T12:38:00,ths,15.25
2022-10-04T12:39:00,ths,13.76
2022-10-04T12:40:00,ths,13.59
2022-10-04T12:41:00,ths,7.39
2022-10-04T12:42:00,ths,7.05
2022-10-04T12:43:00,ths,11.11
2022-10-04T12:44:00,ths,9.67
2022-10-04T12:45:00,ths,11.30
2022-10-04T12:46:00,ths,9.50
2022-10-04T12:47:00,ths,9.58
2022-10-04T12:48:00,ths,10.02
2022-10-04T12:49:00,ths,9.90
2022-10-04T12:50:00,ths,9.94
2022-10-04T12:51:00,ths,9.84
2022-10-04T12:52:00,ths,9.53
2022-10-04T12:53:00,ths,9.50
2022-10-04T12:54:00,ths,5.42
2022-10-04T12:55:00,ths,5.44
2022-10-04T12:56:00,ths,5.40
2022-10-04T12:57:00,ths,5.13
2022-10-04T12:58:00,ths,9.58
2022-10-04T12:59:00,ths,9.62
2022-10-04T13:00:00,ths,9.62
2022-10-04T13:01:00,ths,9.60
2022-10-04T13:02:00,ths,9.51
2022-10-04T13:03:00,ths,9.48
2022-10-04T13:04:00,ths,5.46
2022-10-04T13:05:00,ths,5.27
2022-10-04T13:06:00,ths,7.30
2022-10-04T13:07:00,ths,11.34
2022-10-04T13:08:00,ths,11.29
2022-10-04T13:09:00,ths,7.41
2022-10-04T13:10:00,ths,7.39
2022-10-04T13:11:00,ths,7.24
2022-10-04T13:12:00,ths,11.17
2022-10-04T13:13:00,ths,10.15
2022-10-04T13:14:00,ths,5.83
2022-10-04T13:15:00,ths,5.21
2022-10-04T13:16:00,ths,5.32
2022-10-04T13:17:00,ths,9.28
2022-10-04T13:18:00,ths,9.15
2022-10-04T13:19:00,ths,5.02
2022-10-04T13:20:00,ths,5.04
2022-10-04T13:21:00,ths,5.19
2022-10-04T13:22:00,ths,9.20
2022-10-04T13:23:00,ths,9.18
2022-10-04T13:24:00,ths,5.18
2022-10-04T13:25:00,ths,5.22
2022-10-04T13:26:00,ths,5.04
2022-10-04T13:27:00,ths,9.04
2022-10-04T13:28:00,ths,10.22
2022-10-04T13:29:00,ths,6.32
2022-10-04T13:30:00,ths,6.29
2022-10-04T13:31:00,ths,6.26
2022-10-04T13:32:00,ths,8.87
2022-10-04T13:33:00,ths,10.55
2022-10-04T13:34:00,ths,7.06
2022-10-04T13:35:00,ths,7.01
2022-10-04T13:36:00,ths,6.83
2022-10-04T13:37:00,ths,10.82
2022-10-04T13:38:00,ths,10.82
2022-10-04T13:39:00,ths,6.74
2022-10-04T13:40:00,ths,6.72
2022-10-04T13:41:00,ths,6.70
2022-10-04T13:42:00,ths,10.71
2022-10-04T13:43:00,ths,10.72